Weather History for Somerville, NJ

Change the Weather History Date:

Monday, April 22, 2013

  Actual Average Record
Temperature  
Mean Temperature 42 °F -  
Max Temperature 53 °F 65 °F 87 °F (1985)
Min Temperature 30 °F 40 °F 25 °F (1981)
Degree Days  
Heating Degree Days 24    
Moisture  
Dew Point 32 °F    
Average Humidity 64    
Maximum Humidity 92    
Minimum Humidity 41    
Precipitation  
Precipitation 0.00 in - - ()
Sea Level Pressure  
Sea Level Pressure 30.57 in    
Wind  
Wind Speed 4 mph (ESE)    
Max Wind Speed 14 mph    
Max Gust Speed 22 mph    
Visibility 10 miles    
Events      
Averages and records for this station are not official NWS values.
T = Trace of Precipitation, MM = Missing Value Source: NWS Daily Summary

Daily Weather History Graph

Daily Weather History Graph

Search for Another Location

Airport:

Trip Planner

Search our weather history database for the weather conditions in past years. The results will help you decide how hot, cold, wet, or windy it might be!

Date:

Astronomy

Apr. 22, 2013 Rise Set
Actual Time 6:09 AM EDT 7:45 PM EDT
Civil Twilight 5:40 AM EDT 8:14 PM EDT
Nautical Twilight 5:05 AM EDT 8:49 PM EDT
Astronomical Twilight 4:28 AM EDT 9:26 PM EDT
Moon 4:30 PM EDT (4/22) 4:03 AM EDT (4/22)
Length of Visible Light 14h 33m
Length of Day
13h 36m
Waxing Gibbous, 87% of the Moon is Illuminated
Apr 22
Waxing Gibbous
Apr 25
Full
May 2
Last Quarter
May 9
New
May 18
First Quarter

Hourly Weather History & Observations

Time (EDT) Temp. Windchill Dew Point Humidity Pressure Visibility Wind Dir Wind Speed Gust Speed Precip Events Conditions
12:53 AM 39.0 °F - 30.0 °F 70% 30.61 in 10.0 mi Calm Calm - N/A   Clear
1:53 AM 36.0 °F - 30.9 °F 82% 30.61 in 10.0 mi Calm Calm - N/A   Clear
2:53 AM 35.1 °F - 30.9 °F 85% 30.60 in 10.0 mi Calm Calm - N/A   Clear
3:53 AM 33.1 °F - 30.9 °F 92% 30.60 in 10.0 mi Calm Calm - N/A   Clear
4:53 AM 32.0 °F - 30.0 °F 92% 30.61 in 10.0 mi Calm Calm - N/A   Clear
5:53 AM 30.9 °F 27.5 °F 28.9 °F 92% 30.62 in 10.0 mi NW 3.5 mph - N/A   Clear
6:53 AM 32.0 °F 28.7 °F 30.0 °F 92% 30.61 in 10.0 mi Variable 3.5 mph - N/A   Clear
7:53 AM 42.1 °F 39.2 °F 32.0 °F 67% 30.62 in 10.0 mi ENE 4.6 mph - N/A   Clear
8:53 AM 46.9 °F - 28.9 °F 50% 30.63 in 10.0 mi East 10.4 mph 19.6 mph N/A   Clear
9:53 AM 48.9 °F - 30.0 °F 48% 30.63 in 10.0 mi East 10.4 mph 18.4 mph N/A   Partly Cloudy
10:53 AM 52.0 °F - 30.9 °F 45% 30.62 in 10.0 mi SE 12.7 mph 20.7 mph N/A   Scattered Clouds
11:53 AM 50.0 °F - 32.0 °F 50% 30.61 in 10.0 mi Variable 6.9 mph 19.6 mph N/A   Mostly Cloudy
12:53 PM 53.1 °F - 34.0 °F 48% 30.59 in 10.0 mi SE 11.5 mph 20.7 mph N/A   Partly Cloudy
1:53 PM 53.1 °F - 36.0 °F 52% 30.56 in 10.0 mi SE 13.8 mph 18.4 mph N/A   Mostly Cloudy
2:53 PM 53.1 °F - 35.1 °F 50% 30.55 in 10.0 mi East 9.2 mph 17.3 mph N/A   Mostly Cloudy
3:53 PM 52.0 °F - 35.1 °F 53% 30.53 in 10.0 mi East 8.1 mph 21.9 mph N/A   Mostly Cloudy
4:53 PM 51.1 °F - 32.0 °F 48% 30.52 in 10.0 mi East 10.4 mph 19.6 mph N/A   Partly Cloudy
5:53 PM 51.1 °F - 28.0 °F 41% 30.51 in 10.0 mi SE 10.4 mph 21.9 mph N/A   Clear
6:53 PM 48.9 °F - 28.0 °F 44% 30.50 in 10.0 mi ESE 10.4 mph 17.3 mph N/A   Clear
7:53 PM 46.9 °F - 30.0 °F 52% 30.49 in 10.0 mi ESE 9.2 mph - N/A   Clear
8:53 PM 45.0 °F 41.8 °F 34.0 °F 65% 30.49 in 10.0 mi ESE 5.8 mph - N/A   Clear
9:53 PM 46.0 °F 43.1 °F 37.0 °F 71% 30.50 in 10.0 mi SE 5.8 mph - N/A   Mostly Cloudy
10:53 PM 46.0 °F 43.9 °F 37.0 °F 71% 30.48 in 10.0 mi ESE 4.6 mph - N/A   Overcast
11:53 PM 46.0 °F 44.8 °F 35.1 °F 66% 30.47 in 10.0 mi East 3.5 mph - N/A   Overcast